Preston, MN

10:03 PM CST on November 22, 2017 (GMT -0600)
Preston

Weather History for KFKA - December, 2013

Change the Weather History Date:

Sunday, December 1, 2013

  Actual Average (KRST) Record (KRST)
Temperature  
Mean Temperature 30 °F -  
Max Temperature 35 °F 31 °F 62 °F (1962)
Min Temperature 25 °F 15 °F -10 °F (1886)
Degree Days  
Heating Degree Days 35    
Moisture  
Dew Point 25 °F    
Average Humidity 81    
Maximum Humidity 92    
Minimum Humidity 66    
Precipitation  
Precipitation 0.00 in - - ()
Sea Level Pressure  
Sea Level Pressure 30.07 in    
Wind  
Wind Speed 4 mph (NNE)    
Max Wind Speed 7 mph    
Max Gust Speed -    
Visibility 8 miles    
Events      
Averages and records for this station are not official NWS values.
T = Trace of Precipitation, MM = Missing Value Source: NWS Daily Summary

Daily Weather History Graph

Daily Weather History Graph

Search for Another Location

Airport or City:

Trip Planner

Search our weather history database for the weather conditions in past years. The results will help you decide how hot, cold, wet, or windy it might be!

Date:

Astronomy

Dec. 01, 2013 Rise Set
Actual Time 7:22 AM CST 4:32 PM CST
Civil Twilight 6:50 AM CST 5:05 PM CST
Nautical Twilight 6:14 AM CST 5:40 PM CST
Astronomical Twilight 5:40 AM CST 6:15 PM CST
Moon 5:38 AM CST (12/1) 3:45 PM CST (12/1)
Length of Visible Light 10h 14m
Length of Day
9h 10m
Waning Crescent, 2% of the Moon is Illuminated
Dec 1
Waning Crescent
Dec 2
New
Dec 9
First Quarter
Dec 17
Full
Dec 25
Last Quarter

Hourly Weather History & Observations

Time (CST) Temp. Windchill Dew Point Humidity Pressure Visibility Wind Dir Wind Speed Gust Speed Precip Events Conditions
12:10 AM 32.0 °F 26.4 °F 26.6 °F 80% 30.10 in 10.0 mi North 5.8 mph - N/A   Clear
12:30 AM 32.0 °F 26.4 °F 26.4 °F 80% 30.10 in 10.0 mi North 5.8 mph - N/A   Clear
12:50 AM 31.8 °F 26.2 °F 26.4 °F 80% 30.10 in 7.0 mi North 5.8 mph - N/A   Clear
1:10 AM 31.8 °F 25.4 °F 26.2 °F 80% 30.10 in 10.0 mi North 6.9 mph - N/A   Scattered Clouds
1:30 AM 31.6 °F 25.1 °F 26.2 °F 80% 30.10 in 10.0 mi North 6.9 mph - N/A   Clear
1:50 AM 31.1 °F 25.4 °F 26.1 °F 82% 30.11 in 10.0 mi North 5.8 mph - N/A   Clear
2:10 AM 30.0 °F 25.2 °F 25.7 °F 84% 30.11 in 7.0 mi North 4.6 mph - N/A   Clear
2:30 AM 29.5 °F 23.4 °F 25.3 °F 85% 30.12 in 7.0 mi North 5.8 mph - N/A   Scattered Clouds
2:50 AM 29.5 °F 23.4 °F 25.3 °F 85% 30.12 in 10.0 mi North 5.8 mph - N/A   Scattered Clouds
3:11 AM 28.4 °F 22.2 °F 24.8 °F 86% 30.12 in 7.0 mi North 5.8 mph - N/A   Scattered Clouds
3:30 AM 28.6 °F 23.5 °F 25.0 °F 86% 30.12 in 7.0 mi North 4.6 mph - N/A   Scattered Clouds
3:51 AM 27.9 °F 21.5 °F 24.6 °F 88% 30.12 in 7.0 mi North 5.8 mph - N/A   Scattered Clouds
4:10 AM 27.5 °F 21.1 °F 24.6 °F 89% 30.12 in 7.0 mi North 5.8 mph - N/A   Scattered Clouds
4:31 AM 27.0 °F 20.5 °F 23.9 °F 88% 30.12 in 7.0 mi North 5.8 mph - N/A   Clear
4:50 AM 26.4 °F 20.9 °F 23.5 °F 89% 30.12 in 7.0 mi North 4.6 mph - N/A   Clear
5:11 AM 26.2 °F 20.7 °F 23.5 °F 90% 30.13 in 7.0 mi North 4.6 mph - N/A   Clear
5:30 AM 26.6 °F 20.0 °F 23.7 °F 89% 30.12 in 7.0 mi NNE 5.8 mph - N/A   Clear
5:50 AM 26.2 °F - 23.7 °F 90% 30.13 in 7.0 mi Calm Calm - N/A   Scattered Clouds
6:11 AM 26.6 °F - 23.9 °F 90% 30.14 in 7.0 mi Calm Calm - N/A   Scattered Clouds
6:30 AM 25.7 °F 21.5 °F 23.0 °F 89% 30.14 in 7.0 mi North 3.5 mph - N/A   Clear
6:51 AM 25.2 °F - 23.0 °F 91% 30.13 in 5.0 mi Calm Calm - N/A   Clear
7:10 AM 25.7 °F 21.5 °F 23.5 °F 92% 30.14 in 5.0 mi NNW 3.5 mph - N/A   Clear
7:30 AM 25.7 °F 20.1 °F 23.4 °F 91% 30.14 in 5.0 mi North 4.6 mph - N/A   Scattered Clouds
7:50 AM 25.3 °F 19.7 °F 23.0 °F 91% 30.14 in 5.0 mi NNW 4.6 mph - N/A   Overcast
8:11 AM 26.4 °F 20.9 °F 23.9 °F 90% 30.15 in 5.0 mi North 4.6 mph - N/A   Overcast
8:30 AM 26.6 °F 21.2 °F 23.9 °F 90% 30.15 in 5.0 mi North 4.6 mph - N/A   Overcast
8:51 AM 27.5 °F 23.6 °F 24.6 °F 89% 30.15 in 7.0 mi North 3.5 mph - N/A   Overcast
9:10 AM 28.2 °F 24.4 °F 24.8 °F 87% 30.14 in 5.0 mi NNE 3.5 mph - N/A   Overcast
9:30 AM 29.1 °F 25.4 °F 25.2 °F 85% 30.15 in 7.0 mi North 3.5 mph - N/A   Overcast
9:50 AM 30.0 °F 26.5 °F 25.7 °F 84% 30.15 in 7.0 mi North 3.5 mph - N/A   Overcast
10:10 AM 30.6 °F - 25.3 °F 81% 30.15 in 7.0 mi Calm Calm - N/A   Mostly Cloudy
10:31 AM 31.6 °F - 25.5 °F 78% 30.15 in 7.0 mi Calm Calm - N/A   Scattered Clouds
10:50 AM 32.0 °F - 25.5 °F 77% 30.14 in 10.0 mi Calm Calm - N/A   Mostly Cloudy
11:10 AM 32.5 °F 29.3 °F 25.5 °F 75% 30.13 in 10.0 mi East 3.5 mph - N/A   Overcast
11:30 AM 33.1 °F 30.0 °F 25.3 °F 73% 30.12 in 10.0 mi ENE 3.5 mph - N/A   Overcast
11:50 AM 33.6 °F - 25.3 °F 72% 30.11 in 10.0 mi Calm Calm - N/A   Overcast
12:10 PM 33.8 °F - 25.5 °F 72% 30.10 in 10.0 mi Calm Calm - N/A   Overcast
12:30 PM 33.8 °F - 25.3 °F 71% 30.09 in 10.0 mi Calm Calm - N/A   Overcast
12:51 PM 34.7 °F - 25.5 °F 69% 30.08 in 10.0 mi Calm Calm - N/A   Overcast
1:10 PM 34.7 °F - 25.3 °F 69% 30.07 in 10.0 mi Calm Calm - N/A   Overcast
1:30 PM 34.7 °F - 25.5 °F 69% 30.07 in 10.0 mi Calm Calm - N/A   Overcast
1:50 PM 35.4 °F - 25.7 °F 68% 30.05 in 10.0 mi Calm Calm - N/A   Overcast
2:10 PM 35.8 °F 33.0 °F 25.5 °F 66% 30.05 in 10.0 mi ESE 3.5 mph - N/A   Overcast
2:30 PM 35.6 °F - 25.5 °F 67% 30.04 in 10.0 mi Calm Calm - N/A   Overcast
2:50 PM 35.6 °F - 25.7 °F 67% 30.04 in 10.0 mi Calm Calm - N/A   Overcast
3:10 PM 35.2 °F - 25.5 °F 68% 30.04 in 10.0 mi Calm Calm - N/A   Overcast
3:31 PM 35.1 °F 32.2 °F 25.7 °F 69% 30.04 in 10.0 mi NNE 3.5 mph - N/A   Overcast
3:50 PM 34.7 °F 31.8 °F 25.7 °F 70% 30.03 in 10.0 mi NE 3.5 mph - N/A   Overcast
4:10 PM 34.0 °F 31.0 °F 25.7 °F 72% 30.03 in 7.0 mi North 3.5 mph - N/A   Overcast
4:30 PM 33.4 °F - 25.7 °F 73% 30.02 in 10.0 mi Calm Calm - N/A   Overcast
4:50 PM 33.1 °F 30.0 °F 25.5 °F 74% 30.01 in 10.0 mi East 3.5 mph - N/A   Mostly Cloudy
5:11 PM 32.9 °F - 25.5 °F 74% 30.02 in 10.0 mi Calm Calm - N/A   Overcast
5:30 PM 32.0 °F 28.7 °F 25.5 °F 77% 30.03 in 10.0 mi NW 3.5 mph - N/A   Overcast
5:50 PM 31.6 °F 28.3 °F 25.7 °F 79% 30.03 in 7.0 mi NNW 3.5 mph - N/A   Overcast
6:10 PM 32.2 °F - 25.7 °F 77% 30.02 in 7.0 mi Calm Calm - N/A   Overcast
6:31 PM 32.0 °F - 25.7 °F 78% 30.01 in 7.0 mi Calm Calm - N/A   Overcast
6:50 PM 32.0 °F - 25.5 °F 77% 30.01 in 10.0 mi Calm Calm - N/A   Overcast
7:11 PM 30.4 °F 26.9 °F 24.4 °F 79% 30.00 in 7.0 mi SE 3.5 mph - N/A   Mostly Cloudy
7:30 PM 32.0 °F 28.7 °F 25.5 °F 77% 29.99 in 10.0 mi SE 3.5 mph - N/A   Overcast
7:51 PM 31.1 °F 27.7 °F 25.2 °F 79% 29.99 in 10.0 mi SE 3.5 mph - N/A   Overcast
8:10 PM 30.2 °F - 25.2 °F 82% 29.98 in 10.0 mi Calm Calm - N/A   Overcast
8:30 PM 30.7 °F 27.3 °F 24.8 °F 79% 29.97 in 7.0 mi SE 3.5 mph - N/A   Overcast
8:51 PM 30.9 °F 26.2 °F 24.8 °F 78% 29.96 in 7.0 mi ESE 4.6 mph - N/A   Scattered Clouds
9:10 PM 29.8 °F 24.9 °F 23.9 °F 79% 29.96 in 7.0 mi SE 4.6 mph - N/A   Clear
9:30 PM 28.8 °F 23.7 °F 24.3 °F 83% 29.96 in 7.0 mi SE 4.6 mph - N/A   Clear
9:50 PM 27.1 °F 20.7 °F 23.0 °F 84% 29.95 in 7.0 mi SE 5.8 mph - N/A   Clear
10:10 PM 27.0 °F 21.6 °F 23.0 °F 85% 29.94 in 7.0 mi SE 4.6 mph - N/A   Clear
10:30 PM 27.3 °F 23.4 °F 23.9 °F 87% 29.94 in 7.0 mi SSE 3.5 mph - N/A   Clear
10:50 PM 27.5 °F 21.1 °F 23.7 °F 86% 29.93 in 7.0 mi SE 5.8 mph - N/A   Clear
11:10 PM 27.9 °F 20.6 °F 23.9 °F 85% 29.93 in 7.0 mi SE 6.9 mph - N/A   Clear
11:31 PM 27.3 °F 20.9 °F 23.7 °F 86% 29.92 in 7.0 mi SSE 5.8 mph - N/A   Clear
11:50 PM 27.1 °F 23.2 °F 23.5 °F 86% 29.92 in 7.0 mi SSE 3.5 mph - N/A   Clear